K7TSD Weather Reports


time (UTC)temp
C
wind
direction
speed
KPH
gust
KPH
rain 1hr
cm
rain 24hr
cm
rain mn
cm
humidity
%
barometer
mb
20260502151918 17 341 14.5 16.1 0.00 0.00 0.00 29 1015.9
20260502151415 17 318 8.0 14.5 0.00 0.00 0.00 29 1015.7
20260502150913 17 346 9.7 11.3 0.00 0.00 0.00 30 1015.7
20260502150408 17 344 8.0 9.7 0.00 0.00 0.00 27 1015.9
20260502130254 11 260 0.0 0.0 0.00 0.00 0.00 39 1015.7
20260502123740 10 242 0.0 0.0 0.00 0.00 0.00 40 1015.7
20260502123237 9 226 0.0 0.0 0.00 0.00 0.00 42 1015.4
20260502122734 9 257 0.0 0.0 0.00 0.00 0.00 42 1015.8
20260502122230 9 233 0.0 0.0 0.00 0.00 0.00 41 1016.0
20260502121728 8 223 0.0 0.0 0.00 0.00 0.00 42 1015.8
20260502121226 8 224 0.0 0.0 0.00 0.00 0.00 43 1015.6
20260502120722 8 264 0.0 0.0 0.00 0.00 0.00 42 1015.8
20260502120219 9 256 0.0 0.0 0.00 0.00 0.00 41 1015.6
20260502115717 8 253 0.0 0.0 0.00 0.00 0.00 40 1015.7
20260502115213 9 211 0.0 0.0 0.00 0.00 0.00 41 1015.9
20260502114709 10 248 0.0 0.0 0.00 0.00 0.00 40 1015.6
20260502114207 10 284 0.0 0.0 0.00 0.00 0.00 40 1015.6
20260502113704 9 191 0.0 1.6 0.00 0.00 0.00 40 1015.7
20260502113202 9 250 0.0 0.0 0.00 0.00 0.00 41 1015.8
20260502112659 9 276 0.0 0.0 0.00 0.00 0.00 40 1015.7
20260502112156 8 251 0.0 0.0 0.00 0.00 0.00 41 1015.8
20260502111654 9 213 0.0 0.0 0.00 0.00 0.00 41 1015.8
20260502111151 9 247 0.0 0.0 0.00 0.00 0.00 41 1015.8
20260502110649 9 236 1.6 4.8 0.00 0.00 0.00 40 1015.8
20260502110146 10 249 1.6 3.2 0.00 0.00 0.00 41 1015.9
20260502105643 10 237 8.0 12.9 0.00 0.00 0.00 39 1016.0
20260502105140 10 245 3.2 9.7 0.00 0.00 0.00 40 1015.7
20260502104637 9 248 1.6 4.8 0.00 0.00 0.00 40 1016.1
20260502104135 10 245 0.0 0.0 0.00 0.00 0.00 40 1015.9
20260502103632 8 181 0.0 0.0 0.00 0.00 0.00 42 1015.9
20260502103130 8 245 0.0 0.0 0.00 0.00 0.00 43 1016.1
20260502102627 7 224 0.0 0.0 0.00 0.00 0.00 46 1015.9
20260502102123 8 181 0.0 0.0 0.00 0.00 0.00 45 1016.1
20260502101622 8 221 0.0 0.0 0.00 0.00 0.00 44 1016.3
20260502101120 8 211 0.0 0.0 0.00 0.00 0.00 42 1016.1
20260502100618 8 165 0.0 0.0 0.00 0.00 0.00 43 1016.1
20260502100116 8 156 0.0 0.0 0.00 0.00 0.00 42 1016.4
20260502091049 6 162 0.0 0.0 0.00 0.00 0.00 47 1016.4
20260502090546 6 157 0.0 0.0 0.00 0.00 0.00 48 1016.3
20260502071446 6 267 0.0 0.0 0.00 0.00 0.00 46 1017.3
20260502070944 6 222 0.0 0.0 0.00 0.00 0.00 47 1017.4
20260502070442 7 258 0.0 0.0 0.00 0.00 0.00 45 1017.5
20260502065940 7 263 0.0 0.0 0.00 0.00 0.00 46 1017.6
20260502065438 7 244 0.0 0.0 0.00 0.00 0.00 47 1017.6
20260502064936 6 263 0.0 0.0 0.00 0.00 0.00 48 1017.5
20260502064434 6 242 0.0 0.0 0.00 0.00 0.00 49 1017.6
20260502063931 6 245 0.0 0.0 0.00 0.00 0.00 47 1017.6
20260502063428 7 265 0.0 0.0 0.00 0.00 0.00 49 1017.4
20260502062926 6 227 0.0 0.0 0.00 0.00 0.00 50 1017.4
20260502062423 6 245 0.0 0.0 0.00 0.00 0.00 50 1017.9
20260502061922 7 262 1.6 4.8 0.00 0.00 0.00 48 1017.8
20260502061419 7 276 0.0 0.0 0.00 0.00 0.00 48 1017.6
20260502060915 7 230 0.0 0.0 0.00 0.00 0.00 50 1017.6
20260502060410 7 226 1.6 4.8 0.00 0.00 0.00 49 1017.5
20260502055908 7 256 0.0 0.0 0.00 0.00 0.00 49 1017.5
20260502055405 6 256 0.0 0.0 0.00 0.00 0.00 52 1017.5
20260502054900 6 308 0.0 1.6 0.00 0.00 0.00 53 1017.6
20260502054357 6 312 0.0 0.0 0.00 0.00 0.00 55 1017.9
20260502053854 6 301 0.0 0.0 0.00 0.00 0.00 55 1017.8
20260502053351 6 281 0.0 0.0 0.00 0.00 0.00 56 1017.6
20260502052849 7 269 0.0 0.0 0.00 0.00 0.00 53 1018.0
20260502052347 6 269 0.0 0.0 0.00 0.00 0.00 54 1017.9
20260502051844 6 239 0.0 0.0 0.00 0.00 0.00 57 1017.8
20260502051343 6 238 0.0 0.0 0.00 0.00 0.00 57 1017.6
20260502050839 6 246 0.0 0.0 0.00 0.00 0.00 58 1018.1
20260502050336 6 277 0.0 0.0 0.00 0.00 0.00 58 1017.6
20260502045833 6 251 0.0 0.0 0.00 0.00 0.00 58 1017.6
20260502045329 6 270 0.0 0.0 0.00 0.00 0.00 59 1018.1
20260502044826 6 283 0.0 0.0 0.00 0.00 0.00 58 1018.1
20260502044322 6 245 0.0 0.0 0.00 0.00 0.00 58 1018.0
20260502043820 6 233 0.0 0.0 0.00 0.00 0.00 59 1018.0
20260502043317 6 269 0.0 0.0 0.00 0.00 0.00 57 1018.0
20260502042817 6 262 0.0 0.0 0.00 0.00 0.00 57 1018.2
20260502042315 7 278 0.0 0.0 0.00 0.00 0.00 56 1018.1
20260502041812 7 252 0.0 0.0 0.00 0.00 0.00 56 1018.1
20260502041309 6 265 0.0 0.0 0.00 0.00 0.00 57 1017.9
20260502040806 6 267 0.0 0.0 0.00 0.00 0.00 58 1018.2
20260502040302 6 244 0.0 0.0 0.00 0.00 0.00 58 1017.9
20260502035759 6 252 0.0 0.0 0.00 0.00 0.00 58 1018.0
20260502035255 6 261 0.0 0.0 0.00 0.00 0.00 57 1018.1
20260502034752 6 273 0.0 0.0 0.00 0.00 0.00 58 1018.1
20260502034251 6 237 0.0 0.0 0.00 0.00 0.00 59 1017.8
20260502033749 7 266 0.0 0.0 0.00 0.00 0.00 58 1018.1
20260502033246 6 268 0.0 0.0 0.00 0.00 0.00 59 1017.8
20260502032743 6 241 0.0 0.0 0.00 0.00 0.00 59 1018.0
20260502032238 7 217 0.0 0.0 0.00 0.00 0.00 58 1017.8
20260502031737 7 223 0.0 0.0 0.00 0.00 0.00 58 1018.0
20260502031234 6 270 0.0 0.0 0.00 0.00 0.00 59 1017.8
20260502030733 7 235 0.0 0.0 0.00 0.00 0.00 58 1017.9
20260502030230 7 246 0.0 0.0 0.00 0.00 0.00 58 1017.6
20260502025727 7 256 0.0 0.0 0.00 0.00 0.00 59 1017.9
20260502025225 7 236 0.0 0.0 0.00 0.00 0.00 58 1017.8
20260502024723 7 225 0.0 0.0 0.00 0.00 0.00 58 1017.8
20260502024221 7 200 0.0 0.0 0.00 0.00 0.00 58 1017.9
20260502023719 7 235 0.0 0.0 0.00 0.00 0.00 58 1017.9
20260502023216 7 235 0.0 0.0 0.00 0.00 0.00 60 1017.5
20260502022713 7 185 0.0 0.0 0.00 0.00 0.00 59 1017.8
20260502022209 8 243 0.0 0.0 0.00 0.00 0.00 58 1017.5
20260502021707 8 249 0.0 0.0 0.00 0.00 0.00 57 1017.5
20260502021204 8 243 0.0 0.0 0.00 0.00 0.00 57 1017.2
20260502020701 8 229 0.0 0.0 0.00 0.00 0.00 57 1017.5
20260502020158 8 204 0.0 0.0 0.00 0.00 0.00 56 1017.6
20260502015656 9 247 0.0 0.0 0.00 0.00 0.00 55 1017.5
20260502015152 10 215 0.0 0.0 0.00 0.00 0.00 53 1017.3
20260502014650 12 166 0.0 0.0 0.00 0.00 0.00 47 1017.4
20260502014146 13 48 0.0 0.0 0.00 0.00 0.00 43 1017.4
20260502013642 13 339 0.0 0.0 0.00 0.00 0.00 42 1017.2
20260502013138 13 350 0.0 0.0 0.00 0.00 0.00 42 1017.5
20260502012635 13 20 0.0 0.0 0.00 0.00 0.00 41 1017.3
20260502012133 13 354 0.0 0.0 0.00 0.00 0.00 40 1017.2
20260502011630 13 340 0.0 0.0 0.00 0.00 0.00 40 1017.3
20260502011125 14 330 1.6 3.2 0.00 0.00 0.00 38 1017.4
20260502010624 14 18 0.0 0.0 0.00 0.00 0.00 38 1017.1
20260502010120 14 340 0.0 0.0 0.00 0.00 0.00 38 1017.3
20260502005618 14 359 4.8 8.0 0.00 0.00 0.00 37 1017.1
20260502005115 15 348 0.0 0.0 0.00 0.00 0.00 38 1017.2
20260502004610 15 29 0.0 0.0 0.00 0.00 0.00 39 1016.9
20260502004108 15 349 0.0 0.0 0.00 0.00 0.00 38 1016.9
20260502003606 15 330 8.0 9.7 0.00 0.00 0.00 37 1017.3
20260502003102 15 344 1.6 4.8 0.00 0.00 0.00 38 1016.9
20260502002558 15 330 9.7 12.9 0.00 0.00 0.00 37 1017.2
20260502002056 15 352 8.0 11.3 0.00 0.00 0.00 37 1017.2
20260502001554 15 323 0.0 0.0 0.00 0.00 0.00 39 1017.2
20260502001050 15 302 6.4 11.3 0.00 0.00 0.00 39 1017.1
20260502000549 15 321 4.8 9.7 0.00 0.00 0.00 38 1016.9
20260502000046 15 328 11.3 14.5 0.00 0.00 0.00 36 1016.9
20260501235541 15 358 0.0 0.0 0.00 0.00 0.00 38 1017.1
20260501235038 15 3 1.6 3.2 0.00 0.00 0.00 37 1016.7
20260501234533 15 344 1.6 4.8 0.00 0.00 0.00 38 1016.7
20260501234032 15 324 11.3 14.5 0.00 0.00 0.00 36 1016.9
20260501233529 15 347 1.6 4.8 0.00 0.00 0.00 37 1017.1
20260501233026 15 336 8.0 11.3 0.00 0.00 0.00 38 1017.3
20260501232522 15 336 0.0 1.6 0.00 0.00 0.00 38 1016.9
20260501232020 15 322 12.9 16.1 0.00 0.00 0.00 36 1017.1
20260501231518 15 344 12.9 16.1 0.00 0.00 0.00 34 1016.9
20260501231016 15 341 11.3 12.9 0.00 0.00 0.00 38 1016.8
20260501230514 15 334 16.1 20.9 0.00 0.00 0.00 36 1016.9
20260501230012 15 13 11.3 16.1 0.00 0.00 0.00 37 1016.7
20260501225509 15 9 3.2 8.0 0.00 0.00 0.00 36 1017.2
20260501225004 15 312 14.5 17.7 0.00 0.00 0.00 38 1016.9
20260501224502 15 20 16.1 24.1 0.00 0.00 0.00 36 1017.2
20260501223959 15 327 11.3 12.9 0.00 0.00 0.00 37 1017.1
20260501223455 15 354 14.5 22.5 0.00 0.00 0.00 35 1017.1
20260501222950 15 333 1.6 3.2 0.00 0.00 0.00 35 1017.2
20260501222448 15 3 17.7 24.1 0.00 0.00 0.00 36 1016.8
20260501221944 15 356 3.2 4.8 0.00 0.00 0.00 38 1016.8
20260501221442 15 347 20.9 27.4 0.00 0.00 0.00 38 1017.1
20260501220939 15 356 17.7 27.4 0.00 0.00 0.00 37 1016.9
20260501220437 15 5 3.2 4.8 0.00 0.00 0.00 37 1017.2
20260501215932 15 347 19.3 24.1 0.00 0.00 0.00 34 1017.3
20260501215430 15 316 14.5 20.9 0.00 0.00 0.00 38 1016.8
20260501214925 15 337 17.7 20.9 0.00 0.00 0.00 37 1016.9
20260501214420 15 4 16.1 22.5 0.00 0.00 0.00 38 1017.1
20260501213916 15 351 8.0 12.9 0.00 0.00 0.00 39 1017.2
20260501213414 15 4 9.7 11.3 0.00 0.00 0.00 37 1017.2
20260501212908 15 350 8.0 11.3 0.00 0.00 0.00 38 1017.2
20260501212406 15 341 9.7 11.3 0.00 0.00 0.00 39 1017.2
20260501211902 15 338 17.7 17.7 0.00 0.00 0.00 38 1017.3
20260501211400 15 330 19.3 20.9 0.00 0.00 0.00 37 1017.3
20260501210857 15 357 16.1 22.5 0.00 0.00 0.00 34 1017.5
20260501210349 15 343 8.0 11.3 0.00 0.00 0.00 39 1017.2
20260501205845 15 352 24.1 29.0 0.00 0.00 0.00 36 1017.4
20260501205342 15 25 22.5 27.4 0.00 0.00 0.00 38 1017.4
20260501204839 15 6 19.3 29.0 0.00 0.00 0.00 38 1017.3
20260501204336 15 351 11.3 16.1 0.00 0.00 0.00 38 1017.5
20260501203832 15 359 16.1 27.4 0.00 0.00 0.00 36 1017.4
20260501203329 15 8 11.3 12.9 0.00 0.00 0.00 39 1017.4
20260501202826 15 298 17.7 24.1 0.00 0.00 0.00 36 1017.4
20260501202323 14 336 9.7 12.9 0.00 0.00 0.00 39 1017.5
20260501201820 15 358 14.5 17.7 0.00 0.00 0.00 39 1017.5
20260501201317 15 359 16.1 20.9 0.00 0.00 0.00 39 1017.4
20260501200813 15 352 9.7 11.3 0.00 0.00 0.00 40 1017.3
20260501200310 15 348 17.7 29.0 0.00 0.00 0.00 39 1017.4
20260501195808 15 328 19.3 27.4 0.00 0.00 0.00 39 1017.3
20260501195306 14 356 11.3 14.5 0.00 0.00 0.00 41 1017.4
20260501194800 14 325 19.3 27.4 0.00 0.00 0.00 39 1017.4
20260501194256 14 357 11.3 14.5 0.00 0.00 0.00 41 1017.4
20260501193752 15 337 9.7 17.7 0.00 0.00 0.00 40 1017.5
20260501193251 13 331 11.3 14.5 0.00 0.00 0.00 40 1017.3
20260501192748 14 358 20.9 25.7 0.00 0.00 0.00 41 1017.3
20260501192244 13 323 9.7 12.9 0.00 0.00 0.00 43 1017.5
20260501191742 14 342 19.3 25.7 0.00 0.00 0.00 39 1017.3
20260501191239 13 349 24.1 25.7 0.00 0.00 0.00 38 1017.4
20260501190736 13 351 17.7 24.1 0.00 0.00 0.00 40 1017.4
20260501190231 13 343 9.7 14.5 0.00 0.00 0.00 41 1017.4
20260501185727 13 335 17.7 22.5 0.00 0.00 0.00 39 1017.4
20260501185224 13 350 24.1 29.0 0.00 0.00 0.00 40 1017.4
20260501184720 13 6 17.7 29.0 0.00 0.00 0.00 39 1017.5
20260501184215 13 338 17.7 24.1 0.00 0.00 0.00 40 1017.8
20260501183711 13 348 27.4 37.0 0.00 0.00 0.00 38 1017.6
20260501183209 13 335 12.9 16.1 0.00 0.00 0.00 39 1017.6
20260501182705 13 348 24.1 27.4 0.00 0.00 0.00 39 1017.4
20260501182201 13 328 17.7 22.5 0.00 0.00 0.00 40 1017.5
20260501181658 13 350 22.5 25.7 0.00 0.00 0.00 38 1017.6
20260501181156 14 2 14.5 20.9 0.00 0.00 0.00 41 1017.3
20260501180654 14 353 9.7 14.5 0.00 0.00 0.00 41 1017.4
20260501180149 13 355 14.5 14.5 0.00 0.00 0.00 41 1017.3
20260501175646 13 350 16.1 20.9 0.00 0.00 0.00 41 1017.5
20260501175143 13 355 16.1 27.4 0.00 0.00 0.00 39 1017.5
20260501174640 13 339 14.5 24.1 0.00 0.00 0.00 42 1017.5
20260501174137 13 354 32.2 40.2 0.00 0.00 0.00 40 1017.6
20260501173635 13 10 20.9 25.7 0.00 0.00 0.00 41 1017.4
20260501173132 13 347 6.4 9.7 0.00 0.00 0.00 41 1017.5
20260501172627 13 358 24.1 33.8 0.00 0.00 0.00 39 1017.5
20260501172122 13 344 24.1 29.0 0.00 0.00 0.00 40 1017.5
20260501171618 13 356 25.7 29.0 0.00 0.00 0.00 41 1017.8
20260501171115 13 341 20.9 29.0 0.00 0.00 0.00 40 1017.4
20260501170612 13 357 8.0 16.1 0.00 0.00 0.00 44 1017.4
20260501170109 13 332 16.1 24.1 0.00 0.00 0.00 42 1017.4
20260501165606 13 351 12.9 24.1 0.00 0.00 0.00 43 1017.6
20260501165104 12 334 9.7 14.5 0.00 0.00 0.00 43 1017.5
20260501164601 12 348 19.3 22.5 0.00 0.00 0.00 40 1017.6
20260501164058 13 316 16.1 22.5 0.00 0.00 0.00 41 1017.5
20260501163555 13 351 9.7 12.9 0.00 0.00 0.00 43 1017.3
20260501163052 12 311 11.3 14.5 0.00 0.00 0.00 42 1017.4
20260501162548 12 321 11.3 12.9 0.00 0.00 0.00 41 1017.6
20260501162045 12 300 19.3 27.4 0.00 0.00 0.00 41 1017.3
20260501161542 12 336 17.7 20.9 0.00 0.00 0.00 41 1017.5
20260501161038 12 338 17.7 17.7 0.00 0.00 0.00 41 1017.5
20260501160536 12 311 9.7 22.5 0.00 0.00 0.00 44 1017.4
20260501160033 12 346 20.9 27.4 0.00 0.00 0.00 41 1017.2
20260501155529 12 314 8.0 12.9 0.00 0.00 0.00 42 1016.9
20260501155026 12 335 11.3 16.1 0.00 0.00 0.00 42 1017.3
20260501154518 12 335 11.3 14.5 0.00 0.00 0.00 42 1016.9
20260501154015 12 340 16.1 17.7 0.00 0.00 0.00 42 1016.9
20260501153513 11 324 17.7 22.5 0.00 0.00 0.00 42 1016.9
20260501153008 11 348 17.7 27.4 0.00 0.00 0.00 42 1017.1
20260501152506 12 336 12.9 17.7 0.00 0.00 0.00 43 1016.9